{"data":{"norad_id":57672,"epoch":"2026-05-25T03:42:07.208640Z","epoch_age_seconds":54915,"freshness":"FRESH","line1":"1 57672U 23124K   26145.15425010  .00000370  00000+0  24611-4 0  9992","line2":"2 57672  53.1596 211.7775 0000836  94.1821 265.9276 15.30192588155279","mean_motion":15.30192588,"eccentricity":8.36e-5,"inclination_deg":53.1596,"raan_deg":211.7775,"arg_perigee_deg":94.1821,"mean_anomaly_deg":265.9276,"bstar":2.4611e-5,"rev_number":15527,"period_min":94.105801537185,"perigee_km":474.66425832148,"apogee_km":475.81014248779,"semimajor_km":6853.3742004046,"source":"CELESTRAK","updated_at":"2026-05-25T13:38:18.368490Z"}}